Location: 22
(39.7117°N, 89.5929°W)
Time: 09:27:27
(UTC-05:00)

Vanguard 1 - Pass Details

Date: 12 August 2025
Orbit: 654 x 3817 km, 34.2° (Epoch: 12 April)

Event Time Altitude Azimuth Distance (km) Brightness Sun altitude
Rises 23:08:52 0° 275° (W) 7,025 14.9 -29.5°
Reaches altitude 10° 23:14:18 10° 272° (W) 5,545 14.2 -30.1°
Maximum altitude 23:28:32 57° 200° (SSW) 1,977 11.2 -31.4°
Enters shadow 23:29:04 56° 189° (S) 1,941 11.1 -31.4°
Drops below altitude 10° 23:36:11 10° 123° (ESE) 3,099 - -32.0°
Sets 23:38:23 0° 119° (ESE) 3,806 - -32.2°
